Regional Weather Roundup
Issued by NWS Spokane, WA

Home | Current Version | Previous Version | Text Only | Print | Product List | Glossary On
Versions: 1 2 3 4 5 6 7 8 9 10 11 12 13 14 15 16 17 18 19 20 21 22 23 24 25 26 27 28 29 30 31 32 33 34 35 36 37 38 39 40 41 42 43 44 45 46 47 48 49 50
969
NZUS01 KOTX 102210
RWROTX
EASTERN WASHINGTON/NORTHERN IDAHO ROUNDUP
NATIONAL WEATHER SERVICE, SPOKANE WA
200 PM PST WED FEB 10 2016

Note: "fair" indicated few or no clouds below 12,000 feet with no
significant weather and/or obstructions to visibility.

...NORTHEAST WASHINGTON AND NORTHERN IDAHO PANHANDLE...

CITY           SKY/WX    TMP DP  RH WIND       PRES   REMARKS
SPOKANE INTL   CLOUDY    40  34  79 NE3       30.22F
SPOKANE DOWNTO CLOUDY    43  36  76 E3        30.24F
COEUR D ALENE  CLOUDY    43  36  75 N3        30.21S
DEER PARK      CLOUDY    37  32  82 CALM      30.24S
SANDPOINT      CLOUDY    36  32  87 CALM      30.23F
BONNERS FERRY  CLOUDY    32  32 100 NW3       30.23F FOG

...SOUTHEAST WASHINGTON AND SOUTHERN IDAHO PANHANDLE...

CITY           SKY/WX    TMP DP  RH WIND       PRES   REMARKS
WALLA WALLA    CLOUDY    47  38  71 W6        30.27R
PULLMAN/MOSCOW CLOUDY    49  35  58 SE10      30.26S
LEWISTON       CLOUDY    53  35  50 W3        30.24F
LOWELL           N/A     52  39  61 CALM      30.26F

...COLUMBIA BASIN...

CITY           SKY/WX    TMP DP  RH WIND       PRES   REMARKS
EPHRATA        PTSUNNY   46  37  71 E5        30.25S
MOSES LAKE     PTSUNNY   44  35  70 CALM      30.27S
TRI CITIES     CLOUDY    46  36  68 E3        30.28S
HERMISTON      CLOUDY    47  37  68 CALM      30.27S
PENDLETON      CLOUDY    48  39  71 NW15      30.27R

...EAST SLOPES CASCADES...

CITY           SKY/WX    TMP DP  RH WIND       PRES   REMARKS
THE DALLES     PTSUNNY   49  38  65 CALM      30.30F
YAKIMA         PTSUNNY   47  34  60 S3        30.26F
ELLENSBURG     PTSUNNY   34  28  79 SE7       30.24F HAZE    WCI  28
WENATCHEE      SUNNY     41  32  70 CALM      30.25F
OMAK           CLOUDY    36  29  75 SE5       30.28R

...SOUTHERN BRITISH COLUMBIA...

CITY           SKY/WX    TMP DP  RH WIND       PRES   REMARKS
PENTICTON      CLOUDY    43  36  75 S14G21    30.22S
CASTLEGAR      CLOUDY    36  32  87 CALM      30.25S
CRANBROOK      PTSUNNY   37  27  65 VRB2      30.17F

...WESTERN MONTANA...

CITY           SKY/WX    TMP DP  RH WIND       PRES   REMARKS
MISSOULA       PTSUNNY   36  31  82 CALM      30.23F

...NEIGHBORING CITIES...

CITY           SKY/WX    TMP DP  RH WIND       PRES   REMARKS
SEATTLE        PTSUNNY   53  45  74 SE6       30.23F
CALGARY        PTSUNNY   36  30  80 SE10      29.99F



USA.gov is the U.S. government's official web portal to all federal, state and local government web resources and services.